#timestamp,LO_Frequency,Hit,StdDev 
1652738415.1,286047001.2,N
1652738416.0,286047001.2,N
1652738435.8,286047000.9,N
1652738455.7,286047000.1,N
1652738475.5,286047003.9,N
1652738495.4,286047004.3,N
1652738515.2,286047004.4,N
1652738535.0,286047003.9,N
1652738535.9,286047001.6,N
1652738555.8,286047002.3,N
1652738575.6,286047011.9,Y
1652738595.4,286047000.4,P
1652738615.3,286047000.7,P
1652738635.1,286046998.7,P
1652738655.9,286046995.4,Y
1652738675.7,286046997.6,P
1652738695.5,286046994.9,P
1652738715.4,286046995.5,N
1652738735.2,286046995.8,N
1652738755.0,286046994.9,N
1652738755.9,286046996.1,N
1652738775.8,286046994.1,Y
1652738795.6,286046996.8,P
1652738815.5,286046998.1,P
1652738835.3,286047001.5,N
1652738855.1,286047001.9,N
1652738875.9,286046998.4,N
1652738895.7,286047000.9,N
1652738915.6,286047002.0,N
1652738935.4,286047002.4,N
1652738955.2,286046998.8,N
1652738975.1,286046999.6,N
1652738976.0,286046996.8,N
1652738995.8,286046997.5,N
1652739015.6,286046997.9,N
1652739035.5,286046996.1,N
1652739055.3,286046996.4,N
1652739075.2,286046995.2,N
1652739095.9,286046993.9,N
1652739115.7,286046994.8,N
1652739135.6,286046994.2,N
1652739155.4,286046991.8,Y
1652739175.2,286046995.7,P
1652739195.1,286046996.2,P
1652739196.0,286046996.2,P
1652739215.8,286046995.9,Y
1652739235.7,286046998.2,P
1652739255.5,286046999.8,N
1652739275.3,286046998.5,N
1652739295.2,286047000.4,N
1652739315.0,286046999.3,N
1652739315.9,286046998.8,N
1652739335.7,286046999.4,N
1652739355.6,286047000.3,N
1652739375.4,286047001.1,N
1652739395.3,286046996.7,N
1652739415.1,286046997.1,N
1652739416.0,286046998.5,N
1652739435.8,286046996.6,N
1652739455.7,286046998.8,N
1652739475.5,286046997.1,N
1652739495.4,286046995.0,Y
1652739515.2,286046997.7,P
1652739535.0,286046996.9,P
1652739535.9,286046995.5,P
1652739555.8,286046995.1,Y
1652739575.6,286046998.9,P
1652739595.4,286046995.4,P
1652739615.3,286046999.9,N
1652739635.1,286047002.5,N
1652739655.9,286047002.8,N
1652739675.7,286047004.1,N
1652739695.5,286047001.1,N
1652739715.4,286046998.8,N
1652739735.2,286046997.2,N
1652739755.0,286046999.5,N
1652739756.0,286046999.6,N
1652739775.8,286046998.9,N
1652739795.6,286046999.2,N
1652739815.5,286046999.4,N
1652739835.3,286046999.2,N
1652739855.1,286046997.5,N
1652739875.9,286046995.3,N
1652739895.7,286046996.9,N
1652739915.6,286046997.5,N
1652739935.4,286046997.1,N
1652739955.2,286046997.1,N
1652739975.1,286046997.8,N
1652739976.0,286046997.9,N
1652739995.8,286046996.7,N
1652740015.6,286046994.9,N
1652740035.5,286046996.5,N
1652740055.3,286046998.0,N
1652740075.2,286046998.9,N
1652740095.9,286046997.9,N
1652740115.7,286046998.0,N
1652740135.6,286046996.5,N
1652740155.4,286046997.2,N
1652740175.2,286046995.8,N
1652740195.1,286046993.3,Y
1652740196.0,286046995.2,P
1652740215.8,286046996.8,N
1652740235.7,286046995.7,P
1652740255.5,286046995.5,Y
1652740275.3,286047001.2,P
1652740295.2,286046999.9,N
1652740315.0,286047000.0,N
1652740315.9,286047000.8,N
1652740335.8,286046995.3,N
1652740355.6,286046995.6,N
1652740375.4,286046997.2,N
1652740395.3,286046997.1,N
1652740415.1,286046995.6,N
1652740435.9,286046994.8,N
1652740455.7,286046994.4,N
1652740475.5,286046996.3,N
1652740495.4,286046994.1,N
1652740515.2,286046995.1,N
1652740535.0,286046997.1,N
1652740535.9,286046996.9,N
1652740555.8,286046997.8,N
1652740575.6,286046996.4,N
1652740595.5,286046992.6,Y
1652740615.3,286046997.6,P
1652740635.1,286046999.0,P
1652740655.9,286046996.9,P
1652740675.7,286046999.4,N
1652740695.5,286046997.7,N
1652740715.4,286046998.0,N
1652740735.2,286046997.2,Y
1652740755.1,286047000.4,P
1652740756.0,286047001.0,N
1652740775.8,286046997.8,N
1652740795.6,286046996.8,N
1652740815.5,286046999.0,N
1652740835.3,286046998.2,N
1652740855.2,286046998.3,N
1652740875.9,286046994.9,Y
1652740895.7,286047000.9,P
1652740915.6,286047000.4,N
1652740935.4,286047002.8,N
1652740955.2,286047000.1,N
1652740975.1,286046998.5,N
1652740976.0,286046999.5,N
1652740995.8,286046996.6,N
1652741015.7,286046998.7,N
1652741065.5,286046996.9,E
1652741075.4,286047003.7,N
1652741095.3,286047001.4,P
1652741115.1,286047004.2,P
1652741135.9,286047001.5,N
1652741155.7,286047000.2,N
1652741175.5,286047001.4,N
1652741195.4,286046999.7,N
1652741215.2,286047001.5,N
1652741235.0,286047003.8,N
1652741235.9,286047004.3,N
1652741255.8,286047003.2,N
1652741275.6,286047001.5,N
1652741295.5,286047005.4,Y
1652741315.3,286047003.8,P
1652741335.1,286047003.3,P
1652741355.9,286047007.2,P
1652741375.7,286047008.2,Y
1652741395.5,286047007.2,P
1652741415.4,286047006.4,P
1652741435.2,286047008.9,P
1652741455.1,286047008.8,Y
1652741456.0,286047010.6,P
1652741475.8,286047002.8,N
1652741495.6,286047000.2,N
1652741515.5,286046998.3,N
1652741535.3,286046998.6,N
1652741555.2,286047000.6,N
1652741575.9,286047000.1,N
1652741595.7,286046998.3,N
1652741615.6,286047002.0,N
1652741635.4,286047002.3,N
1652741655.2,286047005.9,N
1652741675.1,286047005.2,N
1652741676.0,286047005.2,N
1652741695.8,286047004.4,N
1652741715.7,286046998.4,N
1652741735.5,286046996.5,N
1652741755.3,286046999.0,N
1652741775.2,286046995.9,N
1652741795.0,286046992.3,N
1652741795.9,286046990.1,N
1652741815.8,286046991.5,N
1652741835.6,286046989.6,N
1652741855.4,286046987.3,N
1652741875.3,286046988.2,N
1652741895.1,286046988.3,N
1652741915.8,286046988.2,N
1652741935.7,286046984.1,N
1652741955.5,286046983.8,N
1652741975.3,286046986.0,N
1652741995.2,286046993.6,N
